• In Uzbekistan
  • List of Countries
  • For 7 days
  • Water Temperature
  • Satellite Maps
  • Weather Map
  • Weather Widgets
  • user-avatar
    Login

    Hourly Weather Ganja

    Today, 23 June, Friday

    Time Temperature Precipitation Wind Pressure Humidity
    00:00 +18°C° 0 mm 2 mps 724 mmHg 77%
    01:00 +18°C° 0 mm 2 mps 724 mmHg 76%
    02:00 +17°C° 0 mm 2 mps 724 mmHg 76%
    03:00 +17°C° 0 mm 3 mps 724 mmHg 74%
    04:00 +18°C° 0 mm 3 mps 724 mmHg 73%
    05:00 +19°C° 0 mm 3 mps 724 mmHg 71%
    06:00 +20°C° 0 mm 3 mps 725 mmHg 70%
    07:00 +21°C° 0 mm 3 mps 725 mmHg 64%
    08:00 +24°C° 0 mm 3 mps 725 mmHg 57%
    09:00 +26°C° 0 mm 3 mps 725 mmHg 51%
    10:00 +27°C° 0.1 mm 2 mps 725 mmHg 49%
    11:00 +27°C° 0.1 mm 2 mps 725 mmHg 47%
    12:00 +28°C° 0.1 mm 2 mps 725 mmHg 46%
    13:00 +28°C° 0.2 mm 1 mps 724 mmHg 46%
    14:00 +29°C° 0.2 mm 1 mps 724 mmHg 45%
    15:00 +29°C° 0.2 mm 1 mps 724 mmHg 45%
    16:00 +29°C° 0.3 mm 1 mps 724 mmHg 47%
    17:00 +28°C° 0.3 mm 1 mps 724 mmHg 49%
    18:00 +28°C° 0.3 mm 1 mps 724 mmHg 51%
    19:00 +26°C° 0.6 mm 1 mps 724 mmHg 57%
    20:00 +24°C° 0.6 mm 2 mps 725 mmHg 63%
    21:00 +20°C° 0.6 mm 2 mps 725 mmHg 69%
    22:00 +20°C° 0.3 mm 2 mps 725 mmHg 71%
    23:00 +20°C° 0.3 mm 1 mps 725 mmHg 73%

    Tomorrow, 24 June, Saturday

    Time Temperature Precipitation Wind Pressure Humidity
    00:00 +19°C° 0.3 mm 1 mps 725 mmHg 75%
    01:00 +19°C° 0 mm 1 mps 725 mmHg 76%
    02:00 +19°C° 0 mm 1 mps 725 mmHg 76%
    03:00 +19°C° 0 mm 1 mps 725 mmHg 76%
    04:00 +20°C° 0 mm 1 mps 725 mmHg 73%
    05:00 +20°C° 0 mm 1 mps 726 mmHg 71%
    06:00 +21°C° 0 mm 1 mps 726 mmHg 68%
    07:00 +23°C° 0 mm 2 mps 725 mmHg 64%
    08:00 +24°C° 0 mm 2 mps 725 mmHg 60%
    09:00 +25°C° 0 mm 2 mps 725 mmHg 55%
    10:00 +26°C° 0 mm 2 mps 725 mmHg 53%
    11:00 +27°C° 0 mm 2 mps 724 mmHg 51%
    12:00 +28°C° 0 mm 2 mps 724 mmHg 48%
    13:00 +29°C° 0 mm 1 mps 723 mmHg 47%
    14:00 +29°C° 0 mm 1 mps 723 mmHg 46%
    15:00 +30°C° 0 mm 1 mps 722 mmHg 45%
    16:00 +30°C° 0 mm 1 mps 722 mmHg 47%
    17:00 +29°C° 0 mm 1 mps 722 mmHg 49%
    18:00 +29°C° 0 mm 1 mps 722 mmHg 51%
    19:00 +27°C° 0 mm 1 mps 722 mmHg 56%
    20:00 +22°C° 0 mm 0 mps 723 mmHg 61%
    21:00 +20°C° 0 mm 0 mps 723 mmHg 66%
    22:00 +20°C° 0 mm 0 mps 723 mmHg 66%
    23:00 +22°C° 0 mm 1 mps 723 mmHg 65%

    Day after tomorrow, 25 June, Sunday

    Time Temperature Precipitation Wind Pressure Humidity
    00:00 +21°C° 0 mm 1 mps 723 mmHg 65%
    01:00 +21°C° 0 mm 1 mps 723 mmHg 66%
    02:00 +21°C° 0 mm 1 mps 723 mmHg 66%
    03:00 +21°C° 0 mm 1 mps 723 mmHg 67%
    04:00 +21°C° 0 mm 2 mps 723 mmHg 65%
    05:00 +23°C° 0 mm 2 mps 724 mmHg 64%
    06:00 +24°C° 0 mm 2 mps 724 mmHg 62%
    07:00 +25°C° 0 mm 3 mps 724 mmHg 55%
    08:00 +27°C° 0 mm 3 mps 724 mmHg 48%
    09:00 +29°C° 0 mm 4 mps 724 mmHg 41%
    10:00 +30°C° 0 mm 3 mps 724 mmHg 39%
    11:00 +31°C° 0 mm 3 mps 724 mmHg 37%
    12:00 +33°C° 0 mm 3 mps 724 mmHg 35%
    13:00 +33°C° 0.1 mm 3 mps 723 mmHg 35%
    14:00 +32°C° 0.1 mm 2 mps 723 mmHg 34%
    15:00 +32°C° 0.1 mm 2 mps 723 mmHg 34%
    16:00 +32°C° 0 mm 2 mps 723 mmHg 36%
    17:00 +32°C° 0 mm 1 mps 723 mmHg 39%
    18:00 +31°C° 0 mm 1 mps 724 mmHg 41%
    19:00 +29°C° 0 mm 1 mps 724 mmHg 46%
    20:00 +26°C° 0 mm 2 mps 725 mmHg 51%
    21:00 +24°C° 0 mm 2 mps 725 mmHg 56%
    22:00 +23°C° 0 mm 2 mps 725 mmHg 60%
    23:00 +21°C° 0 mm 2 mps 726 mmHg 64%

    26 June, Monday

    Time Temperature Precipitation Wind Pressure Humidity
    00:00 +21°C° 0 mm 2 mps 726 mmHg 68%
    01:00 +20°C° 0 mm 2 mps 726 mmHg 70%
    02:00 +20°C° 0 mm 2 mps 726 mmHg 72%
    03:00 +20°C° 0 mm 1 mps 726 mmHg 74%
    04:00 +21°C° 0 mm 1 mps 726 mmHg 72%
    05:00 +22°C° 0 mm 1 mps 727 mmHg 69%
    06:00 +23°C° 0 mm 1 mps 727 mmHg 66%
    07:00 +25°C° 0 mm 1 mps 727 mmHg 61%
    08:00 +26°C° 0 mm 2 mps 727 mmHg 56%
    09:00 +28°C° 0 mm 3 mps 727 mmHg 51%
    10:00 +29°C° 0 mm 3 mps 727 mmHg 49%
    11:00 +30°C° 0 mm 3 mps 727 mmHg 46%
    12:00 +32°C° 0 mm 4 mps 726 mmHg 43%
    13:00 +33°C° 0 mm 4 mps 726 mmHg 42%
    14:00 +33°C° 0 mm 4 mps 725 mmHg 41%
    15:00 +33°C° 0 mm 4 mps 725 mmHg 40%
    16:00 +33°C° 0 mm 4 mps 725 mmHg 42%
    17:00 +31°C° 0 mm 3 mps 725 mmHg 44%
    18:00 +31°C° 0 mm 3 mps 725 mmHg 46%
    19:00 +29°C° 0 mm 3 mps 726 mmHg 50%
    20:00 +27°C° 0 mm 3 mps 726 mmHg 55%
    21:00 +25°C° 0 mm 3 mps 726 mmHg 59%
    22:00 +24°C° 0 mm 3 mps 726 mmHg 61%
    23:00 +23°C° 0 mm 2 mps 726 mmHg 63%

    27 June, Tuesday

    Time Temperature Precipitation Wind Pressure Humidity
    00:00 +23°C° 0 mm 2 mps 726 mmHg 65%
    01:00 +22°C° 0 mm 1 mps 726 mmHg 67%
    02:00 +21°C° 0 mm 1 mps 726 mmHg 69%
    03:00 +18°C° 0 mm 0 mps 725 mmHg 71%
    04:00 +20°C° 0 mm 0 mps 726 mmHg 68%
    05:00 +23°C° 0 mm 1 mps 726 mmHg 65%
    06:00 +25°C° 0 mm 1 mps 726 mmHg 62%
    07:00 +26°C° 0 mm 1 mps 726 mmHg 57%
    08:00 +28°C° 0 mm 1 mps 726 mmHg 52%
    09:00 +29°C° 0 mm 1 mps 725 mmHg 47%
    10:00 +30°C° 0 mm 1 mps 725 mmHg 45%
    11:00 +32°C° 0 mm 1 mps 725 mmHg 42%
    12:00 +33°C° 0 mm 1 mps 724 mmHg 39%
    13:00 +33°C° 0 mm 1 mps 724 mmHg 38%
    14:00 +35°C° 0 mm 2 mps 724 mmHg 38%
    15:00 +35°C° 0 mm 2 mps 723 mmHg 37%
    16:00 +35°C° 0 mm 2 mps 723 mmHg 39%
    17:00 +35°C° 0 mm 2 mps 724 mmHg 41%
    18:00 +34°C° 0 mm 2 mps 724 mmHg 43%
    19:00 +31°C° 0 mm 2 mps 724 mmHg 47%
    20:00 +29°C° 0 mm 2 mps 724 mmHg 51%
    21:00 +27°C° 0 mm 2 mps 725 mmHg 55%
    22:00 +26°C° 0 mm 2 mps 725 mmHg 55%
    23:00 +25°C° 0 mm 2 mps 725 mmHg 56%

    28 June, Wednesday

    Time Temperature Precipitation Wind Pressure Humidity
    00:00 +25°C° 0 mm 2 mps 725 mmHg 57%
    01:00 +24°C° 0 mm 2 mps 725 mmHg 59%
    02:00 +23°C° 0 mm 2 mps 725 mmHg 60%
    03:00 +22°C° 0 mm 1 mps 725 mmHg 62%
    04:00 +24°C° 0 mm 1 mps 725 mmHg 60%
    05:00 +25°C° 0 mm 1 mps 725 mmHg 59%
    06:00 +24°C° 0 mm 0 mps 725 mmHg 57%
    07:00 +28°C° 0 mm 1 mps 725 mmHg 52%
    08:00 +29°C° 0 mm 1 mps 725 mmHg 46%
    09:00 +30°C° 0 mm 2 mps 725 mmHg 41%
    10:00 +32°C° 0 mm 2 mps 725 mmHg 38%
    11:00 +34°C° 0 mm 3 mps 724 mmHg 36%
    12:00 +35°C° 0 mm 4 mps 724 mmHg 33%
    13:00 +35°C° 0 mm 4 mps 724 mmHg 33%
    14:00 +36°C° 0 mm 4 mps 723 mmHg 33%
    15:00 +36°C° 0 mm 5 mps 723 mmHg 32%
    16:00 +35°C° 0 mm 4 mps 723 mmHg 34%
    17:00 +35°C° 0 mm 4 mps 723 mmHg 36%
    18:00 +34°C° 0 mm 4 mps 723 mmHg 39%
    19:00 +32°C° 0 mm 4 mps 723 mmHg 42%
    20:00 +29°C° 0 mm 4 mps 723 mmHg 46%
    21:00 +27°C° 0 mm 4 mps 724 mmHg 49%
    22:00 +26°C° 0 mm 3 mps 723 mmHg 51%
    23:00 +25°C° 0 mm 3 mps 723 mmHg 52%
    Show more